Location: Rounton
(54.4000°N, 1.3500°W)
Time: 21:42:52
(UTC+00:00)

Explorer 7 - Pass Details

Date: 01 December 2021
Orbit: 483 x 674 km, 50.3° (Epoch: 17 January)

Event Time Altitude Azimuth Distance (km) Brightness Sun altitude
Rises 06:40:07 0° 206° (SSW) 2,771 10.4 -11.3°
Reaches altitude 10° 06:43:06 10° 185° (S) 1,834 9.7 -10.9°
Maximum altitude 06:45:41 16° 146° (SE) 1,451 9.8 -10.5°
Drops below altitude 10° 06:48:11 10° 107° (ESE) 1,770 11.0 -10.2°
Sets 06:51:00 0° 86° (E) 2,627 11.5 -9.8°
